• In United Kingdom
  • List of Countries
  • For 7 days
  • Water Temperature
  • Satellite Maps
  • Weather Map
  • Weather Widgets
  • user-avatar
    Login

    Hourly Weather Novonikolaevka

    Today, 15 December, Friday

    Time Temperature Precipitation Wind Pressure Humidity
    00:00 +7°C° 0 mm 4 mps 749 mmHg 91%
    01:00 +7°C° 0 mm 4 mps 749 mmHg 92%
    02:00 +7°C° 0 mm 4 mps 748 mmHg 92%
    03:00 +7°C° 0 mm 4 mps 749 mmHg 92%
    04:00 +7°C° 0 mm 4 mps 749 mmHg 92%
    05:00 +7°C° 0 mm 4 mps 749 mmHg 91%
    06:00 +7°C° 0.1 mm 4 mps 749 mmHg 91%
    07:00 +7°C° 0.1 mm 4 mps 749 mmHg 90%
    08:00 +7°C° 0.1 mm 4 mps 749 mmHg 89%
    09:00 +7°C° 0 mm 4 mps 749 mmHg 85%
    10:00 +7°C° 0 mm 4 mps 750 mmHg 82%
    11:00 +8°C° 0 mm 4 mps 750 mmHg 79%
    12:00 +8°C° 0.1 mm 4 mps 750 mmHg 79%
    13:00 +8°C° 0.1 mm 4 mps 750 mmHg 79%
    14:00 +8°C° 0.1 mm 4 mps 750 mmHg 80%
    15:00 +7°C° 0 mm 4 mps 751 mmHg 82%
    16:00 +7°C° 0 mm 4 mps 751 mmHg 84%
    17:00 +8°C° 0 mm 3 mps 751 mmHg 86%
    18:00 +6°C° 0 mm 4 mps 751 mmHg 87%
    19:00 +6°C° 0 mm 4 mps 751 mmHg 89%
    20:00 +5°C° 0 mm 4 mps 752 mmHg 90%
    21:00 +5°C° 0 mm 4 mps 752 mmHg 91%
    22:00 +5°C° 0 mm 4 mps 752 mmHg 93%
    23:00 +5°C° 0 mm 4 mps 752 mmHg 94%

    Tomorrow, 16 December, Saturday

    Time Temperature Precipitation Wind Pressure Humidity
    00:00 +5°C° 0 mm 4 mps 752 mmHg 94%
    01:00 +5°C° 0 mm 4 mps 752 mmHg 94%
    02:00 +6°C° 0 mm 4 mps 752 mmHg 94%
    03:00 +6°C° 0 mm 5 mps 752 mmHg 94%
    04:00 +6°C° 0 mm 5 mps 752 mmHg 94%
    05:00 +6°C° 0 mm 5 mps 752 mmHg 94%
    06:00 +5°C° 0 mm 6 mps 752 mmHg 92%
    07:00 +5°C° 0 mm 6 mps 751 mmHg 90%
    08:00 +5°C° 0 mm 6 mps 751 mmHg 88%
    09:00 +6°C° 0.1 mm 7 mps 751 mmHg 83%
    10:00 +8°C° 0.1 mm 7 mps 751 mmHg 78%
    11:00 +9°C° 0.1 mm 8 mps 751 mmHg 74%
    12:00 +9°C° 0 mm 8 mps 751 mmHg 70%
    13:00 +9°C° 0 mm 8 mps 750 mmHg 66%
    14:00 +10°C° 0 mm 8 mps 750 mmHg 62%
    15:00 +9°C° 0 mm 8 mps 750 mmHg 64%
    16:00 +9°C° 0 mm 8 mps 750 mmHg 66%
    17:00 +7°C° 0 mm 8 mps 750 mmHg 68%
    18:00 +7°C° 0 mm 8 mps 750 mmHg 69%
    19:00 +8°C° 0 mm 7 mps 750 mmHg 71%
    20:00 +6°C° 0 mm 7 mps 750 mmHg 73%
    21:00 +6°C° 0 mm 7 mps 750 mmHg 73%
    22:00 +6°C° 0 mm 7 mps 750 mmHg 74%
    23:00 +6°C° 0 mm 7 mps 749 mmHg 75%

    Day after tomorrow, 17 December, Sunday

    Time Temperature Precipitation Wind Pressure Humidity
    00:00 +6°C° 0 mm 7 mps 749 mmHg 75%
    01:00 +6°C° 0 mm 7 mps 749 mmHg 75%
    02:00 +7°C° 0 mm 6 mps 749 mmHg 74%
    03:00 +7°C° 0 mm 6 mps 749 mmHg 75%
    04:00 +7°C° 0 mm 6 mps 749 mmHg 76%
    05:00 +7°C° 0 mm 6 mps 749 mmHg 77%
    06:00 +7°C° 0.3 mm 6 mps 749 mmHg 80%
    07:00 +7°C° 0.3 mm 6 mps 749 mmHg 83%
    08:00 +6°C° 0.3 mm 7 mps 749 mmHg 86%
    09:00 +6°C° 0.6 mm 7 mps 749 mmHg 85%
    10:00 +8°C° 0.6 mm 7 mps 749 mmHg 84%
    11:00 +8°C° 0.6 mm 7 mps 748 mmHg 84%
    12:00 +8°C° 0.2 mm 7 mps 748 mmHg 81%
    13:00 +8°C° 0.2 mm 6 mps 748 mmHg 79%
    14:00 +8°C° 0.2 mm 6 mps 748 mmHg 77%
    15:00 +8°C° 0.1 mm 6 mps 748 mmHg 75%
    16:00 +8°C° 0.1 mm 6 mps 747 mmHg 73%
    17:00 +7°C° 0.1 mm 6 mps 747 mmHg 71%
    18:00 +7°C° 0.1 mm 6 mps 747 mmHg 70%
    19:00 +7°C° 0.1 mm 6 mps 747 mmHg 70%
    20:00 +7°C° 0.1 mm 6 mps 747 mmHg 70%
    21:00 +7°C° 0.2 mm 6 mps 747 mmHg 75%
    22:00 +7°C° 0.2 mm 5 mps 746 mmHg 81%
    23:00 +7°C° 0.2 mm 5 mps 746 mmHg 86%

    18 December, Monday

    Time Temperature Precipitation Wind Pressure Humidity
    00:00 +7°C° 1.3 mm 5 mps 746 mmHg 89%
    01:00 +7°C° 1.3 mm 5 mps 746 mmHg 91%
    02:00 +8°C° 1.3 mm 5 mps 746 mmHg 94%
    03:00 +7°C° 0.6 mm 5 mps 747 mmHg 93%
    04:00 +7°C° 0.6 mm 5 mps 747 mmHg 92%
    05:00 +7°C° 0.6 mm 5 mps 747 mmHg 90%
    06:00 +6°C° 0.4 mm 5 mps 747 mmHg 88%
    07:00 +4°C° 0.4 mm 6 mps 748 mmHg 85%
    08:00 +3°C° 0.4 mm 6 mps 748 mmHg 83%
    09:00 +3°C° 0 mm 6 mps 749 mmHg 80%
    10:00 +3°C° 0 mm 6 mps 749 mmHg 78%
    11:00 +2°C° 0 mm 6 mps 750 mmHg 75%
    12:00 +2°C° 0 mm 6 mps 750 mmHg 74%
    13:00 +2°C° 0 mm 6 mps 751 mmHg 73%
    14:00 +2°C° 0 mm 5 mps 751 mmHg 72%
    15:00 +1°C° 0 mm 5 mps 752 mmHg 72%
    16:00 +1°C° 0 mm 5 mps 752 mmHg 72%
    17:00 +1°C° 0 mm 5 mps 753 mmHg 72%
    18:00 0°C° 0 mm 4 mps 753 mmHg 72%
    19:00 0°C° 0 mm 4 mps 753 mmHg 72%
    20:00 +1°C° 0 mm 3 mps 754 mmHg 71%
    21:00 +1°C° 0 mm 3 mps 754 mmHg 72%
    22:00 0°C° 0 mm 3 mps 754 mmHg 72%
    23:00 0°C° 0 mm 3 mps 754 mmHg 73%

    19 December, Tuesday

    Time Temperature Precipitation Wind Pressure Humidity
    00:00 0°C° 0 mm 3 mps 755 mmHg 74%
    01:00 -1°C° 0 mm 3 mps 755 mmHg 74%
    02:00 -1°C° 0 mm 3 mps 755 mmHg 75%
    03:00 -1°C° 0 mm 3 mps 755 mmHg 74%
    04:00 -1°C° 0 mm 3 mps 756 mmHg 73%
    05:00 -1°C° 0 mm 3 mps 756 mmHg 73%
    06:00 -1°C° 0 mm 3 mps 757 mmHg 72%
    07:00 -1°C° 0 mm 3 mps 757 mmHg 72%
    08:00 -1°C° 0 mm 3 mps 757 mmHg 71%
    09:00 -2°C° 0 mm 4 mps 758 mmHg 67%
    10:00 -1°C° 0 mm 4 mps 758 mmHg 63%
    11:00 -1°C° 0 mm 4 mps 758 mmHg 58%
    12:00 -1°C° 0 mm 4 mps 759 mmHg 57%
    13:00 -1°C° 0 mm 5 mps 759 mmHg 55%
    14:00 -1°C° 0 mm 5 mps 759 mmHg 54%
    15:00 -1°C° 0 mm 4 mps 759 mmHg 58%
    16:00 -1°C° 0 mm 3 mps 759 mmHg 62%
    17:00 -1°C° 0 mm 2 mps 760 mmHg 66%
    18:00 -2°C° 0 mm 2 mps 760 mmHg 69%
    19:00 -2°C° 0 mm 3 mps 760 mmHg 71%
    20:00 -2°C° 0 mm 3 mps 760 mmHg 73%
    21:00 -2°C° 0 mm 3 mps 760 mmHg 75%
    22:00 -2°C° 0 mm 3 mps 761 mmHg 76%
    23:00 -2°C° 0 mm 3 mps 761 mmHg 77%

    20 December, Wednesday

    Time Temperature Precipitation Wind Pressure Humidity
    00:00 -2°C° 0 mm 3 mps 761 mmHg 79%
    01:00 -4°C° 0 mm 3 mps 761 mmHg 81%
    02:00 -4°C° 0 mm 3 mps 761 mmHg 82%
    03:00 -4°C° 0 mm 3 mps 761 mmHg 84%
    04:00 -4°C° 0 mm 3 mps 761 mmHg 85%
    05:00 -4°C° 0 mm 3 mps 760 mmHg 86%
    06:00 -4°C° 0 mm 3 mps 761 mmHg 86%
    07:00 -4°C° 0 mm 3 mps 761 mmHg 85%
    08:00 -4°C° 0 mm 3 mps 761 mmHg 85%
    09:00 -4°C° 0 mm 3 mps 761 mmHg 79%
    10:00 -3°C° 0 mm 4 mps 761 mmHg 74%
    11:00 -2°C° 0 mm 4 mps 761 mmHg 68%
    12:00 -2°C° 0 mm 4 mps 761 mmHg 67%
    13:00 -2°C° 0 mm 4 mps 761 mmHg 65%
    14:00 -2°C° 0 mm 4 mps 760 mmHg 64%
    15:00 -1°C° 0 mm 3 mps 760 mmHg 67%
    16:00 -2°C° 0 mm 3 mps 761 mmHg 69%
    17:00 -2°C° 0 mm 2 mps 761 mmHg 72%
    18:00 -2°C° 0 mm 2 mps 761 mmHg 73%
    19:00 -3°C° 0 mm 2 mps 761 mmHg 74%
    20:00 -3°C° 0 mm 2 mps 761 mmHg 75%
    21:00 -3°C° 0 mm 2 mps 761 mmHg 75%
    22:00 -3°C° 0 mm 2 mps 761 mmHg 74%
    23:00 -3°C° 0 mm 2 mps 761 mmHg 74%
    Show more